Location: Ellingshausen
(50.5460°N, 10.4723°E)
Time: 00:35:15
(UTC+00:00)

SL-12 R/B(2) - Pass Details

Date: 18 January 2026
Orbit: 1171 x 2178 km, 63.4° (Epoch: 17 February)

Event Time Altitude Azimuth Distance (km) Brightness Sun altitude
Rises 05:33:37 0° 227° (SW) 4,221 6.5 -14.9°
Reaches altitude 10° 05:36:12 10° 228° (SW) 3,336 6.0 -14.5°
Maximum altitude 05:44:21 81° 316° (NW) 1,525 4.4 -13.3°
Drops below altitude 10° 05:54:30 10° 45° (NE) 4,091 7.1 -11.7°
Sets 05:58:01 0° 47° (NE) 5,224 7.7 -11.2°
